Regional Weather Roundup
Issued by NWS

Home | Current Version | Previous Version | Text Only | Print | Product List | Glossary Off
Versions: 1 2 3 4 5 6 7 8 9 10 11 12 13 14 15 16 17 18 19 20 21 22 23 24 25 26 27 28 29 30 31 32 33 34 35 36 37 38 39 40 41 42 43 44 45 46 47 48 49 50

000
ASUS43 KDTX 102110
RWRMI
MICHIGAN HOURLY REGIONAL WEATHER ROUNDUP
NATIONAL WEATHER SERVICE DETROIT/PONTIAC MI
400 PM EST WED FEB 10 2016

NOTE: "FAIR" INDICATES FEW OR NO CLOUDS BELOW 12,000 FEET WITH NO
SIGNIFICANT WEATHER AND/OR OBSTRUCTION TO VISIBILITY.

MIZ047>049-052>055-059>063-066>070-074>076-081>083-102200-
SOUTHEAST LOWER MICHIGAN

CITY           SKY/WX    TMP DP  RH WIND       PRES   REMARKS
ADRIAN         CLOUDY    21   8  57 NW15G23   29.87R WCI   8
ALMA           CLOUDY    19   8  62 NW15G21   29.87R WCI   4
ANN ARBOR      CLOUDY    20   3  48 NW16G23   29.85R WCI   6
BAD AXE        CLOUDY    16   6  63 NW10      29.82R WCI   4
CARO           CLOUDY    18   5  57 W9        29.82S WCI   6
DETROIT CITY   LGT SNOW  19  13  77 NW8       29.85R VSB 1   WCI   9
DETROIT        CLOUDY    21   7  54 W16       29.85R WCI   7
FLINT          LGT SNOW  20   9  62 NW15      29.84R WCI   6
GROSSE ILE     CLOUDY    21  10  63 W8        29.84R WCI  12
HILLSDALE      CLOUDY    19   9  63 W15G23    29.85R WCI   5
HOWELL         CLOUDY    19   6  56 NW13G22   29.83R WCI   6

CITY           SKY/WX    TMP DP  RH WIND       PRES   REMARKS
JACKSON        CLOUDY    19   4  51 W15G23    29.85R WCI   5
LAMBERTVILLE   LGT SNOW  20  16  82 NW8       29.88R VSB 3/4 WCI  11
LANSING        PTSUNNY   19   3  49 W23       29.86R WCI   2
LAPEER         CLOUDY    17   8  70 NW8       29.83R WCI   6
MASON          CLOUDY    19   5  55 W15G21    29.85R WCI   5
MONROE         CLOUDY    23   9  54 NW15G22   29.86R WCI  10
MT. CLEMENS    CLOUDY    19   7  59 NW13      29.82R WCI   7
PONTIAC        LGT SNOW  16  10  77 W12       29.81R WCI   3
PORT HOPE        N/A     16   7  67 NW21G29   29.79S WCI  -1
PORT HURON     CLOUDY    18   7  62 NW12G17   29.83R WCI   5
TRI CITIES     CLOUDY    19   4  51 N17       29.85R WCI   4
MIDLAND        CLOUDY    18   1  48 N15G22    29.85R WCI   3
TROY           CLOUDY    21  13  70 W13G20    29.85R WCI   8
SAGINAW HB     CLOUDY    19   9  63 NW22      29.85R WCI   3
$$
MIZ043>046-050>051-056>058-064>065-071>073-077>080-102200-
SOUTHWEST LOWER MICHIGAN

CITY           SKY/WX    TMP DP  RH WIND       PRES   REMARKS
BATTLE CREEK   CLOUDY    19   7  59 NW15G25   29.88R WCI   5
BENTON HARBOR  LGT SNOW  19  10  68 NW13G23   29.98R WCI   6
BIG RAPIDS     CLOUDY    17   0  47 NW10G18   29.86R WCI   4
COLDWATER      FLURRIES  19  11  70 NW12      29.89R WCI   7
FREMONT        CLOUDY    17   3  55 NW20      29.92R WCI   0
HOLLAND        SNOW      17  11  77 NW13G28   29.95R VSB 1/2 WCI   4
GRAND RAPIDS   PTSUNNY   19   5  54 NW21G26   29.90R WCI   3
IONIA          CLOUDY    18   5  57 NW10G23   29.87R WCI   7
KALAMAZOO      SNOW      18  11  74 NW17      29.91R VSB 1/2 WCI   3
LUDINGTON      LGT SNOW  15   6  67 NW9G17    29.95R WCI   4
MARSHALL       CLOUDY    20   5  54 W16       29.87R WCI   5
MOUNT PLEASANT CLOUDY    18   3  52 W12G18    29.86R WCI   6
MUSKEGON       LGT SNOW  17   7  64 NW15G22   29.96R WCI   2
SOUTH HAVEN    CLOUDY    19   8  62 NW12G22   29.96R WCI   7
$$
MIZ016>042-102200-
NORTHERN LOWER MICHIGAN

CITY           SKY/WX    TMP DP  RH WIND       PRES   REMARKS
ALPENA         LGT SNOW  11   3  70 NW12G18   29.83R WCI  -3
BEAVER ISLAND  CLOUDY    12   0  57 N14G23    29.92R HAZE    WCI  -3
BELLAIRE       LGT SNOW  14   4  64 NW5       29.91R WCI   6
CADILLAC       LGT SNOW  13   4  69 NW13G18   29.83R WCI  -2
CHARLEVOIX     LGT SNOW  14   3  63 NW21G26   29.92R WCI  -4
FRANKFORT      CLOUDY    17   5  61 NW14G26   29.93R HAZE    WCI   2
GAYLORD        CLOUDY    11  -1  58 NW12G18   29.81R WCI  -3
GRAYLING       PTSUNNY   13   2  62 NW15G23   29.83R HAZE    WCI  -3
HARBOR SPRINGS CLOUDY    11   0  60 NW10G22   29.88R HAZE    WCI  -2
HOUGHTON LAKE  CLOUDY    12  -2  53 NW16      29.83R WCI  -5
MANISTEE       CLOUDY    16   3  57 NW17G28   29.93R WCI   0
OSCODA         CLOUDY    13   2  59 NW14G22   29.82R WCI  -2
PELLSTON       CLOUDY    11  -1  58 NW20G26   29.89R WCI  -7
ROGERS CITY    CLOUDY    11   2  67 NW13G22   29.85R HAZE    WCI  -4
TRAVERSE CITY  LGT SNOW  16   8  71 N13       29.90R WCI   2
$$
MIZ007>008-015-102200-
EASTERN UPPER MICHIGAN

CITY           SKY/WX    TMP DP  RH WIND       PRES   REMARKS
KINROSS        CLOUDY     9   1  72 NW20      29.85R WCI -11
MACKINAC ISLAN CLOUDY    10   1  65 N16G24    29.87R WCI  -7
NEWBERRY       CLOUDY     8   3  80 N9G18     29.90R HAZE    WCI  -5
S. S. MARIE    SUNNY      9  -6  50 NW12      29.87R WCI  -6
MUNISING         N/A     12   6  77 N18G26    29.96R WCI  -6
$$
MIZ004>006-011>014-085-102200-
CENTRAL UPPER MICHIGAN

CITY           SKY/WX    TMP DP  RH WIND       PRES   REMARKS
MANISTIQUE     LGT SNOW  11   5  76 N9G17     29.94R WCI  -1
ESCANABA       CLOUDY    14   0  52 NW14G22   29.98R WCI  -1
MENOMINEE      MOSUNNY   14  -6  41 N12G18    30.00R WCI   0
SAWYER-GWINN   LGT SNOW   9   1  72 N21G28    29.93R WCI -11
$$
MIZ001>003-009>011-084-102200-
WESTERN UPPER MICHIGAN

CITY           SKY/WX    TMP DP  RH WIND       PRES   REMARKS
IRON MOUNTAIN  CLOUDY    10  -3  55 NW21G28   29.97R WCI  -9
HOUGHTON       LGT SNOW   7   0  73 N9        30.01R WCI  -7
COPPER HARBOR    N/A     12   5  73 NE22      30.03R WCI  -7
IRONWOOD       CLOUDY     9   0  66 N10       30.03R WCI  -6
$$

ABBREVIATIONS USED IN REMARKS
   TC - TEMPERATURE IN CELSIUS
  WCI - WIND CHILL INDEX
   HX - HEAT INDEX
  VSB - VISIBILITY




USA.gov is the U.S. government's official web portal to all federal, state and local government web resources and services.